星链-35190(STARLINK-35190)

导读 | 豆包AI

STARLINK-35190是美国于2025年9月19日发射的星链卫星,隶属于SpaceX公司打造的星链星座项目。该项目旨在为全球提供高速低延迟互联网覆盖,服务包括偏远地区网络接入、航海航空联网等场景,此次发射是星链系统持续扩容部署的一环,助力完善全球卫星互联网组网规模。

基本信息
目录编号:
65663
目录名称:
STARLINK-35190
国际标识:
2025-211M
轨道中心:
EARTH
卫星名称:
星链-35190
卫星全名:
星链-35190(STARLINK-35190)
卫星状态:
在轨 (已飞行176 天)
发射日期:
2025-09-19 UTC
国别 :
美国 (US)
星等 :
--
轨道信息
数据来源 国际轨道数据
星历时间: 2026-03-14T05:09:17+0800
13小时前
查看轨道信息
半长轴: 6927.666km
偏心率: 0.0001197
轨道倾角: 97.603°
近地点辐角 97.433°
升交点赤经 118.214°
平近点角 262.703°
近地点: 548.699km
远地点: 550.359km
周期: 95.640分钟
每日圈数: 15.056445
详细信息
固有亮度:
5
最大亮度:
2.5
卫星平台:
Starlink V1.0
覆盖范围:
全球
运营商:
太空探索技术公司
运营商所在国:
美国
制造商(研发单位):
太空探索技术公司
制造商所在国:
美国
使用方式:
暂无
卫星简介
Starlink 计划是 SpaceX 推出的全球卫星互联网项目,通过发射低轨道卫星,为全球尤其是偏远地区提供高速、低延迟的互联网服务。自 2019 年起,Starlink 已部署数千颗卫星,旨在缩小全球数字鸿沟,推动互联网普及。该项目还为军事、航空等行业提供通信支持,带来广泛经济效益。
2D轨道图
3D轨道图
轨道高度分析图
轨道倾角分析图
轨道综合分析图
查看轨道综合分析图